Regional Weather Roundup
Issued by NWS

Home | Current Version | Previous Version | Text Only | Print | Product List | Glossary On
Versions: 1 2 3 4 5 6 7 8 9 10 11 12 13 14 15 16 17 18 19 20 21 22 23 24 25 26 27 28 29 30 31 32 33 34 35 36 37 38 39 40 41 42 43 44 45 46 47 48 49 50
000
ASUS43 KBIS 311510
RWRND

NORTH DAKOTA REGIONAL WEATHER ROUNDUP
NATIONAL WEATHER SERVICE BISMARCK ND
1000 AM CDT FRI JUL 31 2015

NOTE: "FAIR" INDICATES FEW OR NO CLOUDS BELOW 12,000 FEET WITH NO
SIGNIFICANT WEATHER AND/OR OBSTRUCTIONS TO VISIBILITY.


NDZ001>003-009>011-017-311600-
NORTHWEST NORTH DAKOTA

CITY           SKY/WX    TMP DP  RH WIND       PRES   REMARKS
WILLISTON      SUNNY     71  53  52 NE8       30.17R
MINOT          SUNNY     72  50  45 W7        30.13F
MINOT AFB      SUNNY     75  53  45 NW7       30.13S
$$

NDZ018>021-031>035-040>046-311600-
SOUTHWEST NORTH DAKOTA

CITY           SKY/WX    TMP DP  RH WIND       PRES   REMARKS
BISMARCK       SUNNY     73  54  51 SW3       30.16F
DICKINSON      SUNNY     78  52  40 W9        30.18S
GARRISON         N/A     71  56  58 SW8       30.14F
HETTINGER ARPT SUNNY     74  50  42 W7        30.23S
$$

NDZ004>008-012>016-024-026-027-054-311600-
NORTHEAST NORTH DAKOTA

CITY           SKY/WX    TMP DP  RH WIND       PRES   REMARKS
GRAND FORKS    MOSUNNY   73  54  51 NW14      30.06S
GRND FRKS AFB  SUNNY     73  55  54 NW13G18   30.08R
DEVILS LAKE    CLOUDY    66  52  59 NW12      30.11S
$$

NDZ022-023-025-028>030-036>039-047>053-311600-
SOUTHEAST NORTH DAKOTA

CITY           SKY/WX    TMP DP  RH WIND       PRES   REMARKS
FARGO          SUNNY     73  56  54 W12       30.10S
JAMESTOWN      SUNNY     72  54  53 NW8       30.14S
$$




USA.gov is the U.S. government's official web portal to all federal, state and local government web resources and services.